Location: Newark
(15.4608°S, 41.1635°W)
Time: 00:25:31
(UTC+00:00)

Vanguard 3 - Pass Details

Date: 04 August 2021
Orbit: 510 x 3260 km, 33.3° (Epoch: 20 September)

Event Time Altitude Azimuth Distance (km) Brightness Sun altitude
Rises 04:56:42 0° 307° (NW) 6,691 - -59.8°
Reaches altitude 10° 05:01:43 10° 308° (NW) 5,338 - -58.6°
Maximum altitude 05:16:11 78° 32° (NNE) 1,735 - -55.1°
Drops below altitude 10° 05:24:03 10° 117° (ESE) 3,070 - -53.2°
Exits shadow 05:24:11 - 117° (ESE) 3,115 10.4 -53.2°
Sets 05:26:12 0° 118° (ESE) 3,776 11.0 -52.7°
